Home   Weather   Creston   Past weeks

Flag for Canada Past Weather in Creston, British Columbia, Canada — Yesterday and Last 2 Weeks

41 °F

Quite cool.

Feels Like: 41 °F
Forecast: N/A
Wind: No wind

Location: Creston

Current Time: Oct 20, 2016 at 2:33:23 PM

Latest Report: Oct 20, 2016 at 2:00 PM

Visibility: N/A

Pressure: 30.13 "Hg (27.93 "Hg at 617m altitude)

Humidity: 91%

Dew Point: 38 °F

Location of CrestonLocation

Past Weather in Creston — Graph


Creston Temperature Yesterday

Maximum temperature yesterday: 52 °F (at 2:00 PM)
Minimum temperature yesterday: 39 °F (at 8:00 AM)
Average temperature yesterday: 45 °F

High & Low Weather Summary for the Past Weeks

High60 °F (Oct 7, 4:00 PM)100% (Oct 7, 8:00 AM)30.43 "Hg (Oct 7, 8:00 AM)
Low29 °F (Oct 12, 7:00 AM)37% (Oct 11, 4:00 PM)29.37 "Hg (Oct 14, 6:00 AM)
Average45 °F83%29.96 "Hg
* Reported Oct 5 1:00 PM — Oct 20 1:00 PM, Creston, Weather by CustomWeather, © 2016

Note: Actual official high and low records may vary slightly from our data, if they occured in-between our weather recording intervals... More about our weather records


Creston Weather History for the Previous 24 Hours

Scroll right to see more
Time TempWeatherWind HumidityBarometerVisibility
1:00 PM
Thu, Oct 20
41 °FQuite cool.1 mph90%30.15 "HgN/A
12:00 PM41 °FQuite cool.2 mph97%30.17 "HgN/A
11:00 AM41 °FQuite cool.1 mph97%30.19 "HgN/A
10:00 AM41 °FQuite cool.1 mph97%30.21 "HgN/A
9:00 AM40 °FQuite cool.1 mph97%30.20 "HgN/A
8:00 AM40 °FQuite cool.2 mph96%30.22 "HgN/A
7:00 AM40 °FQuite cool.3 mph95%30.23 "HgN/A
6:00 AM41 °FQuite cool.6 mph95%30.26 "HgN/A
5:00 AM41 °FQuite cool.9 mph93%30.27 "HgN/A
4:00 AM41 °FQuite cool.5 mph94%30.29 "HgN/A
3:00 AM42 °FQuite cool.5 mph86%30.30 "HgN/A
2:00 AM42 °FQuite cool.7 mph74%30.31 "HgN/A
1:00 AM43 °FQuite cool.8 mph73%30.33 "HgN/A
12:00 AM44 °FQuite cool.5 mph77%30.35 "HgN/A
11:00 PM
Wed, Oct 19
43 °FQuite cool.3 mph81%30.37 "HgN/A
10:00 PM44 °FQuite cool.3 mph80%30.39 "HgN/A
9:00 PM44 °FQuite cool.5 mph80%30.41 "HgN/A
8:00 PM44 °FQuite cool.3 mph80%30.43 "HgN/A
7:00 PM44 °FQuite cool.5 mph79%30.43 "HgN/A
6:00 PM47 °FCool.3 mph75%30.42 "HgN/A
5:00 PM49 °FCool.5 mph65%30.42 "HgN/A
4:00 PM51 °FCool.3 mph66%30.42 "HgN/A
3:00 PM51 °FCool.7 mph62%30.42 "HgN/A
2:00 PM52 °FCool.6 mph66%30.42 "HgN/A
Weather by CustomWeather, © 2016

See weather overviewHow to use our weather pages